This is the latest recevied weather packets stored in our database for station/object FW0690. If no packets are shown the sender has not sent any weather packets the latest 10 day(s).
| Time | Temp. | Humidity | Pressure | Rain* | Wind** | Luminosity | Snow |
|---|---|---|---|---|---|---|---|
| 1777974639 | 26.67° C | 30% | 1013.7 hPa | - | - | 139 W/m² | - |
| 1777974279 | 26.11° C | 31% | 1013.7 hPa | - | - | 56 W/m² | - |
| 1777973920 | 25° C | 31% | 1013.8 hPa | - | - | 121 W/m² | - |
| 1777973560 | 25° C | 31% | 1013.9 hPa | - | - | 98 W/m² | - |
| 1777973199 | 24.44° C | 31% | 1013.9 hPa | - | - | 42 W/m² | - |
| 1777972840 | 25° C | 32% | 1013.9 hPa | - | - | 40 W/m² | - |
| 1777972479 | 24.44° C | 33% | 1013.9 hPa | - | - | 43 W/m² | - |
| 1777972120 | 23.89° C | 34% | 1013.9 hPa | - | - | 58 W/m² | - |
| 1777971760 | 23.33° C | 34% | 1014 hPa | - | - | 85 W/m² | - |
| 1777971399 | 23.33° C | 34% | 1014.1 hPa | - | - | 81 W/m² | - |
| 1777971039 | 22.78° C | 34% | 1014.1 hPa | - | - | 64 W/m² | - |
| 1777970679 | 22.78° C | 34% | 1014.1 hPa | - | - | 36 W/m² | - |
| 1777970320 | 22.78° C | 35% | 1014.1 hPa | - | - | 32 W/m² | - |
| 1777969959 | 22.78° C | 35% | 1014.2 hPa | - | - | 31 W/m² | - |
| 1777969599 | 22.22° C | 35% | 1014.2 hPa | - | - | 31 W/m² | - |
| 1777969239 | 22.22° C | 36% | 1014.3 hPa | - | - | 31 W/m² | - |
| 1777968879 | 22.22° C | 36% | 1014.3 hPa | - | - | 31 W/m² | - |
| 1777968519 | 21.67° C | 37% | 1014.3 hPa | - | - | 32 W/m² | - |
| 1777968159 | 21.67° C | 37% | 1014.3 hPa | - | - | 26 W/m² | - |
| 1777967799 | 21.11° C | 37% | 1014.3 hPa | - | - | 28 W/m² | - |
| 1777967439 | 21.11° C | 38% | 1014.4 hPa | - | - | 29 W/m² | - |
| 1777967079 | 21.11° C | 39% | 1014.3 hPa | - | - | 29 W/m² | - |
| 1777966719 | 20.56° C | 40% | 1014.3 hPa | - | - | 31 W/m² | - |
| 1777966359 | 20.56° C | 41% | 1014.3 hPa | - | - | 27 W/m² | - |
| 1777965999 | 20.56° C | 42% | 1014.3 hPa | - | - | 29 W/m² | - |
* Rain since midnight (hover to see other rain measurements)
** Current wind speed in m/s (hover to see current wind gust speed)